Wetbulb
59.20 59.35 59.34 58.99 58.65 58.62 58.84 58.93 58.73 58.87 59.22 59.58 59.45 59.54 59.68 58.83 57.62 57.76 54.88 58.49 57.80 61.62 61.11 56.54 55.50 54.87 54.76 52.93 51.47 49.54 45.87 42.64 43.69 43.74 46.76 49.86 49.16 51.68 53.12 51.54 58.84 62.53 61.83 63.16 66.37
59.58 59.84 60.06 59.61 58.87 58.73 59.08 59.01 58.78 59.09 59.22 59.26 58.62 58.68 58.85 57.93 55.99 54.82 60.33 61.25 61.67 61.68 57.68 56.27 53.88 53.63 51.82 51.07 51.06 49.56 45.06 45.16 47.64 48.24 48.01 49.25 49.00 50.25 50.01 50.49 50.68 52.44 62.56 64.59 64.84
59.77 60.00 60.19 60.11 59.45 59.41 59.30 59.09 58.87 59.31 59.23 59.05 58.63 58.77 58.03 57.70 53.61 53.99 62.61 62.02 62.41 61.42 59.04 57.15 54.61 52.53 49.34 49.85 48.87 47.70 45.70 47.56 48.27 49.77 49.51 49.02 49.40 51.63 49.44 47.58 50.65 50.90 54.90 63.33 63.15
59.36 59.45 59.81 60.28 60.17 59.87 59.32 58.70 58.91 58.42 58.47 58.08 58.33 58.53 58.07 56.93 45.96 55.97 63.58 62.92 62.78 60.90 58.58 55.67 52.81 49.41 47.55 46.24 48.39 44.65 47.47 47.54 48.55 49.66 49.43 49.14 50.91 49.74 50.22 50.74 54.15 54.31 55.39 62.27 62.48
58.65 58.93 59.63 60.33 60.37 59.89 59.31 58.23 57.22 56.52 56.75 56.70 56.92 57.52 56.36 51.76 51.45 59.14 60.49 60.65 59.74 59.34 56.24 54.50 51.47 49.89 46.73 47.13 49.14 47.74 48.46 49.57 50.25 51.15 51.72 52.00 50.12 50.26 50.33 54.15 55.55 55.18 53.80 58.81 61.21
58.22 58.50 59.13 59.55 59.86 59.41 57.89 56.33 55.48 55.40 55.35 55.97 56.01 56.57 53.48 45.85 57.39 57.79 56.63 57.38 57.92 57.44 56.01 54.44 52.18 52.89 50.37 50.16 49.30 50.10 50.19 50.90 51.93 52.13 52.25 50.32 51.16 51.82 52.46 54.50 54.02 53.15 52.93 55.04 58.47
58.12 58.31 58.64 59.16 58.89 57.87 56.79 55.38 54.73 54.67 55.10 55.59 56.10 54.68 51.08 49.04 56.85 56.24 55.72 55.42 56.85 55.82 53.26 56.28 56.09 53.47 51.90 49.45 51.80 51.13 47.39 49.35 50.14 50.97 49.80 50.40 46.82 47.83 53.60 54.55 52.28 52.24 52.35 54.93 58.50
58.32 58.16 57.60 57.76 57.16 56.24 55.36 54.16 53.83 54.18 54.47 55.52 56.33 52.68 46.02 55.23 56.61 54.78 55.14 54.17 55.59 55.50 55.21 56.38 55.96 52.87 51.55 52.18 50.00 46.94 47.22 42.33 47.45 48.70 49.96 48.31 43.56 49.82 52.61 50.26 50.70 51.41 50.42 52.74 57.12
58.23 57.78 56.76 56.06 55.39 54.52 53.69 53.13 52.84 53.54 54.18 55.21 51.97 50.28 43.90 54.88 50.71 55.31 55.72 53.71 55.42 54.92 55.04 56.37 53.91 49.79 50.31 46.31 43.68 44.19 40.34 40.87 43.37 49.74 48.61 46.94 45.10 49.01 50.05 50.83 51.17 52.64 53.40 53.98 52.78
58.03 57.14 56.04 55.13 54.01 52.99 52.16 51.91 52.92 52.63 52.94 53.19 52.46 44.27 46.57 45.57 51.83 55.62 55.81 55.77 54.42 53.67 52.05 51.78 50.20 46.35 45.79 43.58 35.89 39.07 39.44 41.01 41.20 46.77 47.20 46.19 46.18 49.53 51.37 51.49 50.95 51.77 52.63 52.96 53.52
57.46 56.64 55.58 54.28 53.22 51.84 50.66 49.96 45.30 44.78 48.35 43.52 43.91 42.21 45.97 51.15 53.29 52.35 55.87 54.28 54.03 51.86 47.30 49.29 44.73 41.58 43.81 45.02 45.59 42.97 41.00 40.24 43.41 47.15 45.69 45.22 45.89 48.23 50.36 50.50 50.34 50.85 51.48 52.66 54.11
56.84 55.80 54.64 53.62 52.66 51.43 49.45 44.62 44.22 46.14 39.83 46.37 46.45 46.48 48.48 50.27 43.98 47.51 51.82 47.67 48.92 45.17 47.69 45.38 42.32 46.53 47.14 46.02 44.23 43.24 41.54 41.33 44.68 47.26 45.87 45.24 44.67 47.87 49.23 49.76 50.73 50.69 51.41 52.53 53.84
56.28 55.09 54.03 52.85 51.57 47.49 45.65 44.63 49.60 49.10 38.17 39.65 44.59 44.31 45.48 47.88 43.12 43.85 47.80 45.21 44.52 44.03 44.96 42.52 43.53 47.62 46.17 44.89 43.11 43.39 41.80 41.75 41.69 45.30 46.99 44.99 42.33 44.79 47.08 49.01 50.04 51.39 52.33 53.19 53.99
55.23 54.06 52.47 51.23 46.64 45.31 43.68 49.06 49.73 48.73 32.79 33.99 38.68 43.49 46.51 46.49 40.00 47.84 47.79 44.10 41.47 38.27 43.55 43.06 46.32 44.22 43.24 41.98 43.82 38.39 45.49 44.56 43.34 41.78 36.21 44.26 33.13 41.73 45.51 46.77 48.63 49.65 51.10 50.98 52.24
54.37 53.17 51.45 50.43 45.15 43.49 47.77 49.15 47.40 42.89 24.38 37.80 38.40 48.44 47.50 40.77 43.24 45.11 49.02 45.45 38.80 39.23 40.89 36.63 42.15 43.22 41.84 42.55 44.63 41.24 45.06 43.35 42.73 40.69 39.68 39.33 35.87 40.30 45.06 43.52 45.87 47.96 50.13 49.79 50.40
53.54 52.13 50.89 48.31 47.36 47.48 49.28 48.00 44.63 30.46 23.30 32.59 39.95 39.92 40.51 42.73 42.08 45.03 44.89 46.63 45.01 40.20 40.36 39.33 43.51 41.56 42.20 44.52 45.70 44.43 41.39 39.89 40.31 38.64 30.87 36.60 36.14 36.80 40.65 43.39 45.68 48.50 47.27 47.94 48.75
52.40 51.57 49.59 49.53 44.11 48.99 49.44 43.06 26.98 23.97 36.31 32.95 35.16 39.09 37.23 36.66 37.79 41.24 40.84 39.97 37.40 33.80 34.08 38.09 38.97 41.48 42.94 39.23 41.27 40.09 35.95 29.48 28.40 29.51 28.75 38.05 35.29 37.81 43.39 45.95 42.38 41.56 43.45 45.75 48.12
51.07 50.53 49.64 48.41 48.87 49.03 45.20 34.75 22.49 29.18 31.17 37.76 36.88 36.63 33.93 36.10 36.49 37.51 36.69 35.40 38.63 38.42 35.08 31.99 30.52 39.05 41.69 39.64 37.41 37.84 36.88 30.64 22.57 24.87 29.23 36.75 30.78 36.78 43.63 42.75 42.80 43.07 43.75 45.07 46.58
50.36 47.41 46.27 47.37 48.82 48.50 38.80 27.16 27.40 30.00 35.48 34.62 35.78 33.13 32.53 34.94 35.58 35.84 36.58 35.02 36.52 38.32 33.79 31.45 32.14 39.95 38.88 39.64 41.09 36.88 33.91 37.30 32.14 33.80 29.50 32.96 37.53 42.36 40.28 39.32 40.08 40.21 42.22 44.04 45.02
45.72 43.68 43.85 48.04 49.09 45.11 33.63 29.60 31.00 35.53 36.72 36.65 31.77 33.62 30.46 32.02 32.22 32.83 34.76 37.53 34.83 38.26 40.59 33.98 28.07 36.24 36.57 40.70 38.50 36.42 37.89 30.82 32.76 25.12 23.93 29.18 29.24 32.27 35.04 36.20 38.42 38.45 40.72 42.63 44.29
43.10 35.02 44.80 48.25 47.96 37.71 29.64 30.57 32.56 36.07 36.95 34.27 32.49 31.83 32.04 30.90 32.46 31.21 33.25 35.84 37.65 35.32 37.89 35.76 31.40 30.44 34.48 33.15 31.33 32.21 31.72 31.76 30.14 28.87 22.67 20.52 25.48 37.03 35.47 38.32 37.48 38.58 40.35 42.02 43.85
39.57 31.32 44.77 47.69 33.30 32.11 30.49 32.62 36.47 34.02 37.07 34.76 34.53 33.16 31.87 31.84 30.32 30.01 30.83 34.27 38.86 37.56 33.18 34.85 31.44 25.79 28.22 34.70 37.60 36.28 32.11 30.30 24.40 21.30 23.23 23.08 25.10 39.87 39.23 40.01 40.08 39.80 40.65 42.75 43.70
32.27 33.19 43.57 44.27 28.16 28.84 33.33 33.11 34.60 33.44 33.89 33.27 32.42 35.07 35.85 31.86 28.79 31.54 33.15 37.74 38.53 36.19 32.85 34.17 28.84 22.69 25.47 31.20 34.23 31.57 32.73 32.08 30.17 28.69 22.44 19.96 23.66 38.61 39.13 38.35 39.52 39.64 41.21 42.31 43.23
34.43 29.47 33.72 36.72 34.34 32.36 30.52 30.62 30.66 35.98 34.36 35.35 34.68 35.65 33.17 31.07 33.14 29.87 31.86 35.80 37.77 37.14 38.05 36.95 29.74 25.87 21.50 25.57 28.72 26.01 28.43 30.30 28.30 22.71 22.72 24.36 26.67 32.44 35.08 35.57 37.87 39.28 41.94 41.99 42.83
33.72 31.20 34.67 28.66 29.48 32.17 32.49 32.13 30.47 30.00 34.17 35.49 32.86 32.98 31.68 27.22 28.94 28.72 31.66 32.92 35.09 37.16 37.08 34.40 26.00 28.57 28.97 29.91 29.91 28.31 28.14 28.34 25.04 26.55 21.82 24.89 26.04 31.44 34.58 35.95 37.65 41.28 41.70 41.48 42.41
32.06 31.48 33.63 33.63 33.24 31.95 32.25 30.24 30.10 30.57 32.21 31.01 30.02 33.26 31.94 28.18 29.94 27.95 30.98 31.65 30.61 33.13 33.55 34.82 26.66 26.61 20.73 27.95 26.68 23.77 26.27 26.66 26.49 26.39 26.31 27.69 27.80 36.00 37.34 39.46 38.54 38.51 39.30 40.40 42.26
36.39 37.81 35.84 33.13 31.57 30.20 28.83 29.83 30.74 32.34 31.53 33.68 31.97 30.66 29.58 31.65 33.60 34.16 34.58 33.53 33.02 31.08 30.83 29.70 26.49 22.16 19.62 24.21 22.92 18.05 23.99 25.95 27.05 28.93 28.47 24.10 30.62 35.25 34.28 34.68 36.13 37.22 37.94 39.64 41.90
MSLP
1015.35 1015.62 1015.96 1016.15 1016.28 1016.51 1016.68 1016.73 1016.74 1016.80 1016.76 1016.58 1016.36 1016.07 1015.59 1015.08 1014.30 1013.88 1013.23 1012.25 1012.16 1012.06 1012.00 1011.86 1011.73 1011.91 1011.79 1012.06 1012.30 1012.53 1012.54 1011.94 1011.42 1011.08 1009.78 1009.55 1009.15 1008.99 1009.03 1008.82 1008.76 1008.52 1008.74 1009.02 1009.57
1014.80 1015.18 1015.56 1015.83 1016.02 1016.00 1016.41 1016.51 1016.65 1016.64 1016.57 1016.49 1016.25 1015.99 1015.39 1014.94 1014.48 1013.34 1012.28 1012.19 1012.08 1011.90 1012.18 1012.27 1012.16 1012.11 1011.95 1012.09 1012.33 1012.29 1012.24 1011.38 1010.93 1010.38 1009.77 1009.65 1009.58 1009.28 1008.92 1008.47 1008.05 1008.30 1008.81 1009.27 1009.66
1014.15 1014.44 1015.05 1015.46 1015.66 1015.88 1015.93 1016.07 1016.32 1016.44 1016.39 1016.27 1016.16 1015.77 1015.30 1014.63 1014.11 1012.71 1012.07 1012.13 1012.18 1012.11 1012.29 1012.47 1012.37 1012.32 1012.21 1012.15 1012.11 1012.25 1011.70 1011.20 1010.76 1010.46 1010.15 1009.94 1009.60 1009.17 1008.55 1007.58 1007.04 1007.81 1008.02 1008.94 1009.66
1013.57 1013.90 1014.48 1014.93 1015.29 1015.55 1015.72 1015.81 1015.87 1016.08 1016.21 1016.21 1016.00 1015.65 1015.28 1014.80 1013.86 1012.47 1012.26 1012.21 1012.14 1012.17 1012.23 1012.30 1012.40 1012.56 1012.43 1012.25 1012.03 1012.18 1011.56 1011.25 1010.76 1010.43 1010.25 1009.85 1009.43 1008.84 1008.65 1006.79 1006.62 1007.16 1007.53 1008.24 1008.60
1012.96 1013.36 1013.84 1014.47 1014.76 1015.03 1015.30 1015.45 1015.71 1015.93 1016.06 1016.20 1016.14 1015.70 1015.36 1014.98 1013.00 1012.08 1012.29 1012.12 1011.97 1012.02 1012.22 1012.23 1012.47 1012.69 1012.48 1012.51 1012.38 1011.98 1011.37 1011.42 1011.21 1010.89 1010.36 1009.99 1009.22 1008.65 1007.33 1006.02 1005.71 1006.40 1006.79 1006.90 1007.22
1012.28 1012.96 1013.35 1013.76 1014.25 1014.62 1014.93 1015.40 1015.67 1015.81 1015.91 1016.00 1016.09 1015.99 1015.72 1014.52 1011.89 1012.14 1012.25 1012.31 1012.10 1012.08 1012.23 1012.19 1012.49 1012.59 1012.78 1012.85 1012.60 1012.04 1012.01 1011.66 1011.17 1010.60 1010.25 1009.38 1008.27 1008.22 1005.82 1005.29 1005.27 1005.71 1005.72 1005.94 1006.20
1011.48 1012.18 1012.88 1013.14 1013.87 1014.36 1014.87 1015.20 1015.70 1015.59 1015.83 1015.97 1016.07 1016.02 1015.91 1013.38 1011.98 1012.22 1012.27 1012.35 1012.42 1012.40 1012.54 1012.41 1012.50 1012.70 1013.04 1012.82 1012.62 1012.44 1011.96 1011.60 1010.86 1009.98 1009.51 1008.86 1007.56 1006.25 1004.84 1004.96 1004.87 1005.19 1005.24 1005.25 1005.28
1010.60 1011.39 1012.21 1012.57 1013.30 1014.02 1014.77 1015.23 1015.52 1015.65 1015.84 1015.85 1016.07 1016.16 1015.02 1012.55 1012.37 1011.86 1011.83 1012.29 1012.11 1012.56 1012.63 1012.66 1012.71 1012.99 1013.01 1013.13 1012.71 1012.74 1012.28 1011.58 1010.68 1010.22 1009.17 1008.89 1005.02 1005.51 1004.86 1005.08 1004.93 1004.70 1004.82 1004.86 1004.87
1009.66 1010.59 1011.43 1011.98 1012.93 1013.64 1014.49 1015.23 1015.47 1015.49 1015.49 1016.16 1016.06 1015.95 1014.12 1012.34 1012.30 1011.35 1011.83 1011.95 1012.09 1012.30 1012.51 1012.58 1013.10 1013.12 1013.30 1013.20 1013.12 1012.83 1011.89 1011.87 1011.30 1010.47 1009.65 1009.02 1005.33 1005.60 1005.15 1005.10 1004.85 1004.54 1004.54 1004.46 1004.36
1008.96 1009.75 1010.64 1011.43 1012.39 1013.38 1014.13 1014.96 1015.18 1015.67 1015.75 1015.88 1015.91 1016.04 1013.64 1012.17 1011.23 1011.35 1011.72 1011.81 1011.88 1012.21 1012.69 1012.89 1013.13 1013.28 1013.42 1013.29 1011.97 1011.56 1011.98 1011.75 1011.53 1010.75 1010.08 1008.97 1005.36 1005.53 1005.31 1005.05 1004.56 1004.27 1003.99 1003.66 1003.44
1008.04 1009.00 1009.87 1010.73 1011.69 1012.63 1013.56 1015.10 1015.57 1015.91 1015.20 1013.77 1013.86 1013.50 1012.52 1011.75 1011.23 1011.20 1011.42 1011.58 1011.76 1012.04 1012.26 1012.74 1012.87 1012.54 1012.28 1012.08 1011.48 1011.70 1011.72 1011.66 1011.59 1010.99 1010.15 1008.60 1005.73 1004.11 1004.93 1004.55 1003.71 1003.43 1003.13 1002.80 1002.68
1006.70 1007.92 1008.78 1009.96 1010.87 1011.82 1012.49 1012.90 1012.82 1012.59 1013.39 1013.02 1013.07 1013.10 1012.56 1012.04 1011.86 1011.36 1011.21 1011.38 1011.57 1011.74 1012.01 1012.56 1011.81 1011.77 1011.91 1012.20 1012.23 1012.04 1011.73 1011.60 1011.03 1010.69 1010.35 1008.77 1004.90 1002.86 1004.22 1003.17 1002.67 1002.35 1002.44 1002.18 1001.79
1005.45 1006.73 1007.57 1009.02 1010.36 1011.61 1011.57 1011.95 1011.90 1012.07 1012.77 1012.32 1011.99 1012.03 1011.91 1012.09 1011.63 1010.95 1010.88 1011.10 1011.31 1011.51 1011.48 1011.19 1010.90 1011.20 1011.67 1011.95 1012.04 1011.81 1011.82 1011.52 1011.21 1010.87 1010.21 1008.93 1004.77 1002.32 1002.29 1001.83 1002.43 1002.47 1002.20 1002.07 1001.97
1004.36 1005.62 1006.85 1008.43 1010.74 1010.50 1011.00 1011.28 1011.54 1012.02 1012.81 1011.67 1011.43 1010.71 1011.25 1011.27 1011.05 1010.74 1010.63 1010.89 1011.39 1011.06 1011.59 1011.21 1010.88 1010.82 1011.23 1011.32 1011.56 1010.98 1010.99 1010.87 1011.01 1011.11 1009.78 1009.55 1006.33 1001.64 1001.60 1000.01 1002.21 1002.00 1002.14 1002.32 1001.92
1002.93 1004.47 1006.14 1006.17 1007.71 1008.67 1009.09 1010.49 1011.41 1012.05 1012.81 1010.48 1010.45 1010.33 1010.26 1010.90 1010.37 1010.60 1010.57 1010.80 1010.91 1010.95 1011.14 1010.68 1010.69 1010.72 1010.81 1010.58 1010.75 1010.70 1010.77 1010.78 1010.73 1010.87 1010.54 1006.59 1008.73 1003.47 1000.48 1000.45 1001.63 1002.67 1002.80 1003.21 1003.54
1001.61 1003.16 1005.08 1006.85 1007.20 1007.44 1008.29 1009.81 1010.95 1012.99 1011.16 1009.84 1009.73 1009.91 1010.37 1010.36 1010.13 1010.43 1010.54 1010.73 1010.99 1011.21 1011.14 1011.01 1011.01 1010.94 1010.45 1010.38 1010.45 1010.93 1011.07 1011.02 1010.84 1010.93 1009.79 1006.59 1008.53 1005.57 1002.67 1002.46 1002.57 1003.72 1004.88 1005.01 1004.49
1000.45 1002.13 1004.37 1005.38 1006.01 1006.87 1007.56 1009.43 1012.07 1011.79 1009.78 1009.38 1009.28 1009.49 1009.76 1010.28 1010.46 1010.37 1010.77 1011.32 1011.66 1012.01 1011.78 1011.41 1011.02 1010.72 1010.73 1010.76 1010.91 1011.25 1011.68 1011.17 1010.61 1010.31 1008.40 1007.26 1006.83 1004.86 1004.42 1004.71 1006.11 1005.95 1005.82 1005.65 1005.24
999.67 1002.32 1004.65 1005.31 1005.66 1006.42 1006.89 1009.85 1010.65 1009.28 1008.90 1008.78 1009.19 1009.69 1009.77 1010.19 1010.87 1010.87 1011.12 1012.16 1012.46 1012.35 1012.35 1012.04 1011.82 1011.42 1011.67 1011.56 1011.48 1011.64 1011.75 1012.04 1011.04 1009.72 1008.46 1008.29 1006.15 1004.83 1006.25 1006.72 1007.05 1007.25 1006.65 1005.89 1005.24
999.85 1002.74 1004.32 1005.84 1006.06 1006.11 1007.01 1009.33 1008.64 1008.74 1008.07 1008.22 1009.41 1009.81 1010.41 1010.54 1010.45 1011.26 1011.90 1012.56 1013.11 1013.27 1013.11 1013.41 1012.85 1012.51 1012.34 1012.04 1012.03 1012.33 1012.39 1013.11 1012.60 1011.28 1010.15 1008.14 1006.60 1006.27 1007.41 1007.86 1007.46 1006.90 1006.80 1006.01 1005.09
1000.09 1002.75 1004.80 1005.42 1005.89 1006.46 1007.83 1008.32 1008.81 1008.77 1008.31 1008.56 1009.00 1010.11 1010.48 1010.86 1010.82 1011.36 1012.27 1013.28 1013.70 1014.02 1013.85 1014.60 1013.98 1013.54 1013.09 1012.44 1012.87 1012.68 1013.40 1013.55 1013.56 1012.39 1010.41 1009.15 1008.71 1008.12 1008.26 1008.38 1008.12 1007.72 1006.90 1006.33 1005.93
1001.01 1003.62 1004.96 1005.45 1006.54 1007.21 1007.67 1008.66 1009.16 1009.14 1008.90 1009.66 1010.46 1010.94 1010.94 1011.08 1011.21 1011.85 1012.54 1013.68 1013.93 1014.53 1014.56 1014.63 1014.72 1013.93 1013.43 1013.12 1013.13 1013.55 1013.79 1014.73 1015.17 1014.89 1013.57 1011.93 1010.43 1009.27 1009.37 1009.22 1008.42 1007.95 1006.80 1006.11 1005.94
1001.46 1003.65 1005.07 1005.04 1006.70 1007.11 1007.65 1008.26 1009.01 1009.85 1009.89 1010.40 1011.08 1011.70 1012.10 1011.88 1012.35 1012.63 1013.00 1013.35 1014.17 1014.45 1015.05 1015.31 1015.45 1014.91 1014.08 1014.06 1013.74 1013.98 1014.87 1015.45 1015.79 1015.66 1015.39 1014.44 1011.86 1010.44 1009.45 1008.47 1008.17 1007.58 1006.46 1005.99 1005.74
1002.06 1004.09 1005.01 1004.94 1006.06 1006.89 1007.97 1008.60 1009.07 1009.66 1010.15 1011.00 1011.51 1011.70 1012.82 1012.68 1013.21 1013.24 1013.53 1014.15 1014.30 1014.75 1015.17 1015.47 1016.10 1015.78 1014.37 1014.79 1014.72 1014.79 1015.45 1015.59 1016.24 1016.35 1014.86 1013.90 1011.07 1009.73 1009.04 1008.20 1007.69 1007.32 1006.28 1005.57 1005.08
1001.75 1004.29 1005.33 1005.83 1006.40 1006.30 1007.32 1008.53 1009.28 1009.81 1010.63 1011.26 1012.05 1012.10 1012.74 1013.15 1013.78 1014.10 1014.44 1014.78 1014.79 1015.19 1015.36 1015.52 1016.06 1016.22 1015.62 1014.50 1014.74 1014.89 1014.82 1015.22 1016.06 1015.78 1014.26 1012.51 1010.92 1009.83 1008.62 1008.12 1007.14 1006.77 1005.90 1005.63 1004.77
1001.87 1003.27 1003.98 1005.23 1006.19 1006.34 1006.76 1008.02 1008.91 1010.19 1010.74 1011.00 1012.51 1012.26 1012.40 1013.63 1014.37 1014.64 1014.74 1014.92 1014.98 1015.28 1015.36 1015.96 1016.36 1016.40 1015.91 1015.30 1014.92 1015.05 1014.63 1014.24 1014.73 1014.34 1014.46 1011.96 1011.04 1009.57 1008.86 1008.14 1007.26 1006.87 1005.99 1005.40 1004.99
1002.27 1003.03 1003.93 1004.69 1005.55 1006.11 1006.83 1008.05 1008.65 1010.06 1010.33 1011.35 1012.18 1012.74 1012.67 1013.27 1013.63 1014.62 1014.85 1015.00 1014.86 1015.39 1015.50 1016.27 1016.69 1016.77 1015.82 1015.81 1015.41 1015.07 1014.42 1013.54 1013.24 1013.05 1012.61 1011.78 1010.52 1009.75 1008.98 1008.51 1007.59 1007.04 1006.46 1005.39 1004.86
1002.69 1002.55 1002.82 1005.02 1005.73 1006.33 1007.20 1007.94 1008.64 1009.45 1010.84 1011.13 1012.19 1013.08 1013.30 1013.25 1013.73 1014.45 1015.10 1015.23 1015.37 1015.41 1015.67 1016.52 1017.02 1017.34 1016.25 1015.94 1015.80 1014.82 1013.41 1012.84 1012.37 1012.19 1012.21 1011.27 1010.20 1010.32 1009.51 1008.79 1007.84 1007.06 1006.24 1005.65 1004.60
Wind_Speed
13 12 11 11 9 7 6 4 3 4 5 7 8 11 13 14 15 1 5 2 4 3 1 3 4 6 2 2 3 3 3 6 7 6 5 4 5 2 3 8 5 5 3 3 8
15 13 12 11 10 9 7 4 3 3 4 7 10 13 13 12 4 4 5 2 6 7 5 6 4 5 1 2 2 4 4 9 6 6 8 7 5 11 8 13 18 16 4 3 10
17 15 13 11 10 9 8 6 4 3 4 5 8 11 14 9 5 0 4 6 5 7 4 1 1 1 1 1 5 4 7 6 6 11 10 8 13 10 14 19 18 13 8 10 10
17 15 14 12 11 11 9 6 3 0 1 4 6 9 13 4 5 2 5 5 3 3 1 1 3 0 3 5 2 5 9 8 4 4 6 14 9 11 13 23 21 17 10 11 17
17 16 15 14 12 11 9 8 6 4 3 1 5 8 4 2 9 3 7 5 0 3 2 2 4 3 4 3 3 7 8 9 8 13 12 13 17 18 24 28 26 19 14 17 18
19 17 16 14 12 11 10 8 8 6 5 2 3 7 1 4 2 5 7 4 2 2 3 4 2 2 3 3 4 4 8 12 12 18 17 22 25 12 18 23 20 15 18 18 19
20 18 17 14 12 12 10 10 9 8 6 4 2 3 1 15 2 5 4 2 2 2 3 3 3 3 1 3 4 6 13 15 14 11 8 6 11 16 24 17 17 12 13 12 17
22 19 17 15 14 13 11 10 8 7 5 5 5 3 8 3 5 10 1 5 5 5 6 4 7 4 3 4 5 9 11 8 3 1 4 2 21 11 14 6 11 10 8 9 15
23 22 20 19 17 15 12 9 7 6 7 6 4 3 10 5 5 3 5 2 5 4 6 5 5 5 5 5 5 3 10 6 8 7 7 5 25 3 1 10 19 21 22 21 15
25 25 23 22 19 15 14 9 9 8 5 4 2 4 7 5 2 3 4 2 2 8 7 4 3 4 2 7 10 7 7 5 6 5 5 15 33 24 23 20 23 23 21 20 20
27 27 26 23 21 20 16 7 4 2 4 10 8 5 1 2 3 3 4 4 3 2 5 5 5 9 16 18 12 9 9 12 8 12 20 19 29 26 23 23 22 21 21 21 21
31 30 28 25 23 22 9 6 6 4 3 14 9 10 7 1 3 4 3 5 5 7 5 3 9 11 12 13 13 13 15 15 14 11 6 17 38 31 23 24 22 19 17 19 21
33 32 30 26 23 11 9 7 7 4 1 5 7 8 7 9 8 7 9 3 6 6 10 15 6 6 9 7 9 12 12 14 17 16 15 18 29 23 11 21 14 12 13 13 18
34 33 30 29 12 8 7 9 7 3 2 6 6 6 6 7 4 4 6 5 4 14 7 10 7 16 18 13 10 16 12 15 15 8 9 2 16 33 22 29 11 15 8 12 17
37 34 33 31 13 13 11 11 11 4 4 4 6 6 8 7 6 3 4 3 8 9 8 7 2 3 7 10 10 7 1 6 9 10 12 23 9 19 31 28 17 8 17 21 19
38 38 37 6 2 9 17 16 6 7 12 6 6 8 6 3 3 4 3 2 2 3 1 5 2 3 6 4 5 2 1 4 7 7 11 24 13 20 24 20 27 22 19 20 20
39 39 24 8 11 16 19 6 8 7 2 8 6 8 5 5 4 5 5 3 2 4 3 3 6 2 2 4 2 4 3 4 3 5 10 10 10 17 20 19 18 22 24 24 20
37 32 10 2 11 15 8 8 6 11 8 4 6 8 6 4 2 2 6 5 7 3 2 1 5 3 3 3 2 3 4 4 8 14 18 19 13 13 13 18 16 16 21 22 21
35 8 6 4 7 7 17 8 8 6 7 13 7 6 4 3 6 4 3 5 4 5 2 1 3 2 8 2 2 3 2 7 8 18 15 15 20 19 16 14 23 25 25 25 25
11 11 6 8 7 12 9 6 5 1 4 3 6 2 7 4 5 4 6 4 6 3 2 3 4 1 1 2 7 5 1 2 3 6 6 4 5 7 15 14 17 19 17 23 22
13 7 6 10 7 6 8 5 6 3 6 6 5 4 4 4 6 4 5 3 5 4 3 4 2 4 4 2 2 4 3 3 2 4 4 4 5 5 8 13 17 20 17 19 22
5 6 8 11 5 3 5 11 10 9 8 6 6 7 3 5 4 4 6 5 9 7 4 1 2 5 4 4 4 6 3 3 1 2 4 7 7 3 13 16 16 21 18 19 24
6 4 3 7 5 4 7 8 7 9 8 4 4 5 1 4 5 3 5 2 10 8 8 8 3 3 7 6 1 3 6 4 3 2 11 7 7 14 16 17 17 19 18 17 21
6 7 3 3 2 9 12 8 8 7 8 5 5 6 5 4 3 5 4 6 9 5 5 8 5 6 9 9 1 7 10 7 5 7 8 13 21 22 26 21 23 22 20 18 19
3 4 3 9 5 13 6 7 14 7 3 5 2 7 7 5 4 5 5 2 5 6 7 7 7 9 13 11 13 14 18 19 17 19 12 23 23 27 23 24 22 19 20 20 19
4 5 1 10 13 16 8 6 14 6 7 6 6 7 6 7 7 7 7 5 4 3 7 4 4 4 5 9 8 16 18 20 22 20 19 22 25 23 19 17 19 19 22 20 19
1 2 5 8 9 8 6 9 10 11 3 6 8 5 5 7 4 3 2 2 1 5 8 6 6 2 6 1 7 11 18 16 14 18 17 18 20 14 19 20 20 22 21 20 15
Wind_Direction
211 212 213 213 217 227 237 255 284 324 338 343 340 329 321 320 313 268 250 217 140 347 117 346 37 2 76 110 103 146 189 230 241 222 258 263 282 346 309 265 230 210 256 340 140
207 210 213 212 213 205 221 239 275 310 327 333 331 324 312 325 294 280 261 91 73 35 54 28 11 359 61 142 158 198 213 228 214 228 258 267 292 300 286 276 260 263 210 171 167
206 203 207 208 207 211 206 213 235 289 318 330 322 314 312 323 305 331 28 112 88 57 77 144 144 54 283 144 183 170 240 231 241 248 268 283 286 279 280 276 263 260 227 194 199
203 200 202 202 203 208 212 212 179 111 322 329 319 315 316 312 289 106 32 31 10 16 46 2 56 156 232 228 182 245 248 237 260 244 284 278 287 271 264 260 273 260 237 196 208
199 196 196 205 205 205 205 189 145 137 108 10 330 323 334 12 252 56 40 357 318 112 335 300 218 181 217 239 304 244 269 272 272 291 286 277 264 265 266 268 268 267 224 219 214
197 198 196 198 194 194 181 166 151 146 133 111 349 322 92 240 189 76 23 355 65 122 136 139 165 231 254 258 242 326 296 292 292 284 280 273 274 272 251 259 269 257 240 232 225
196 194 197 185 185 181 172 156 160 146 132 109 67 71 258 243 66 332 328 207 254 269 275 170 136 188 121 257 343 305 303 303 279 272 260 297 258 233 257 273 271 270 257 239 229
193 189 184 173 172 170 164 159 153 141 135 120 110 92 249 270 310 297 280 266 238 230 213 135 76 111 174 299 320 300 286 287 359 284 262 271 286 312 272 276 284 289 265 256 248
189 184 174 168 168 162 153 148 145 141 127 133 90 104 261 320 258 261 168 191 128 108 151 103 147 180 162 220 282 232 272 259 300 301 305 258 293 290 314 321 303 298 297 295 274
188 178 171 170 163 153 140 132 120 112 125 114 75 31 260 234 183 118 169 230 140 123 96 140 123 137 156 185 240 224 229 233 278 320 298 287 279 276 281 293 289 288 283 275 274
183 178 172 167 159 144 122 130 112 174 220 192 181 242 254 306 9 175 171 152 150 182 192 190 178 203 204 211 244 285 281 283 269 278 290 285 281 288 291 282 278 275 278 281 280
180 175 169 165 155 156 132 175 197 159 219 231 232 259 262 106 346 220 182 186 176 205 150 178 245 239 217 221 239 260 278 286 283 273 265 299 290 290 287 275 276 274 281 283 283
179 175 165 155 145 139 169 180 143 127 328 256 195 214 228 182 217 236 164 183 201 203 205 231 194 93 186 209 227 239 249 267 271 293 284 281 283 297 306 288 279 294 286 289 289
176 170 156 138 138 150 177 168 145 107 313 237 208 238 169 156 248 203 207 160 209 230 204 263 243 246 247 249 246 268 222 244 263 286 294 340 293 301 305 292 341 304 310 329 313
172 162 154 153 141 175 155 137 126 69 248 165 151 148 146 192 134 150 173 125 186 183 157 205 180 157 213 229 208 249 227 257 270 267 296 269 244 287 295 299 343 46 325 348 340
166 156 154 139 128 138 128 133 91 86 232 194 137 162 148 211 167 123 168 115 135 172 215 234 123 248 209 178 177 91 235 297 259 237 244 270 233 266 280 308 311 328 353 345 341
157 151 159 153 161 148 136 127 91 186 227 179 165 160 165 157 137 166 158 97 188 157 192 190 223 111 54 232 301 265 300 313 263 192 255 300 262 244 288 300 14 350 341 337 331
138 137 127 93 132 146 129 108 175 186 174 109 138 131 139 146 80 108 122 128 35 18 132 162 168 61 359 85 280 306 176 224 268 277 283 287 262 265 47 5 357 354 339 329 329
127 113 107 124 135 152 137 187 180 171 164 144 118 144 130 170 131 129 90 117 61 352 145 59 208 73 53 33 299 39 191 344 283 259 266 258 269 269 10 4 357 345 337 331 330
123 125 120 130 124 120 140 124 138 322 83 132 126 195 145 152 119 132 152 126 124 33 23 139 286 134 307 135 68 98 7 351 278 282 272 300 315 299 331 335 328 326 324 317 314
107 99 129 124 124 136 168 125 129 84 77 78 113 110 113 104 87 57 84 81 122 134 89 150 172 192 296 186 293 310 196 172 210 237 287 311 307 237 236 279 312 305 300 307 309
101 110 155 146 129 134 130 134 115 121 80 87 85 91 109 113 128 145 163 150 168 154 144 133 148 285 292 342 279 226 139 119 191 298 293 254 249 283 242 271 276 293 296 293 293
92 93 42 159 153 119 129 121 107 134 113 105 125 131 137 149 124 162 128 152 152 160 164 167 164 300 292 139 101 171 192 174 127 208 245 255 262 259 275 281 294 295 301 292 289
109 124 69 76 255 129 127 127 113 103 124 116 119 106 115 98 39 136 146 158 178 191 157 159 173 202 247 273 168 259 264 249 199 255 272 259 271 291 287 299 303 310 309 300 295
47 99 147 165 167 140 106 125 124 131 101 118 93 161 141 129 145 178 190 135 173 197 170 170 226 220 241 257 273 285 280 291 262 252 256 269 284 280 292 297 300 304 313 318 314
115 130 67 116 127 126 108 149 149 126 134 154 142 180 148 149 171 185 165 177 193 163 164 141 219 195 262 260 272 275 275 266 275 277 264 266 269 279 302 309 305 311 312 315 315
337 30 93 126 135 123 157 145 150 123 45 139 149 127 153 204 157 130 114 91 226 178 170 172 162 169 266 44 323 276 251 263 277 284 281 280 295 323 316 314 307 307 299 296 311